SCP
-0 -0 -0 -0 -0 -0 -0 -0 -0 -0 -0 -0 -0 -0 -0 -0 -0 -0 -0 -0 -0 -0 -0 -0 -0 -0 0 0 0 0 0 0 0 0 0 0 -0 -0 -0 -0 -0 -0 -0
-0 -0 -0 -0 -0 -0 -0 -0 -0 -0 -0 -0 -0 -0 -0 -0 -0 -0 -0 -0 -0 -0 -0 -0 -0 -0 -0 0 0 0 0 0 0 0 0 0 -0 -0 -0 -0 -0 -0 0
-0 -0 -0 -0 -0 -0 -0 -0 -0 -0 -0 -0 -0 -0 -0 -0 -0 -0 -0 -0 -0 -0 -0 -0 -0 -0 -0 0 0 0 0 0 0 0 0 0 0 0 0 0 -0 -0 -0
-0 -0 -0 -0 -0 -0 -0 -0 -0 -0 -0 -0 -0 0 0 -0 -0 -0 -0 -0 -0 0 0 0 0 0 -0 0 0 0 0 0 0 0 0 0 0 0 0 0 0 -0 0
0 0 0 -0 -0 -0 -0 -0 -0 -0 -0 -0 0 0 0 0 0 0 0 0 0 0 0 0 0 0 0 0 0 0 0 0 0 0 0 0 0 0 0 0 0 0 0
0 0 0 0 0 0 0 0 0 0 -0 -0 0 0 0 0 0 0 0 0 0 0 0 0 0 0 0 0 0 0 0 0 0 0 0 0 0 0 0 0 0 0 0
0 0 0 0 0 0 0 0 0 0 0 0 0 0 0 0 0 0 0 0 0 0 0 0 0 0 0 0 0 0 0 0 0 0 0 0 0 0 0 0 0 0 0
0 0 0 0 0 0 0 0 0 0 0 0 0 0 0 0 0 0 0 0 0 0 0 0 0 0 0 0 0 0 0 0 0 0 0 0 0 0 0 0 0 1 1
0 0 0 0 0 0 0 0 0 0 0 0 0 0 0 0 0 0 0 0 0 0 0 0 0 0 0 0 0 0 0 0 0 0 0 0 0 0 0 0 0 0 1
0 0 0 0 0 0 0 0 0 0 0 0 0 0 0 0 0 0 0 0 0 0 0 0 0 0 0 0 0 0 0 0 0 0 0 0 0 0 0 0 0 0 0
0 0 0 0 0 0 0 0 0 0 0 0 0 0 0 0 0 0 0 0 0 0 0 0 0 0 0 0 0 0 0 0 0 0 0 0 0 0 0 0 0 0 0
0 0 0 0 0 0 0 0 0 0 0 0 0 0 0 0 0 0 0 0 0 0 0 0 0 0 0 0 0 0 0 0 0 0 0 0 0 0 0 0 0 0 0
0 0 0 0 0 0 0 0 0 0 0 0 0 0 0 0 0 0 0 0 0 0 0 0 0 0 0 0 0 0 0 0 0 0 0 0 0 0 0 0 0 0 1
0 0 0 0 0 0 0 0 0 0 0 0 0 0 0 0 0 0 0 0 0 0 0 0 0 0 0 0 0 0 0 0 0 0 0 0 0 0 0 0 0 0 0
0 0 0 0 0 0 0 0 0 0 0 0 0 0 0 0 0 0 0 0 0 0 0 0 0 0 0 0 0 0 0 0 0 0 0 0 0 0 0 0 0 0 0
0 0 0 0 0 0 0 0 0 0 0 0 0 0 0 0 0 0 0 0 0 0 0 0 0 0 0 -0 0 0 0 0 0 0 0 0 0 0 0 0 0 0 0
0 0 0 0 0 0 0 0 0 0 0 0 0 0 0 0 0 0 0 0 0 0 0 0 0 0 0 -0 -0 -0 -0 0 0 0 0 0 0 0 0 0 0 0 0
0 0 0 0 0 0 0 0 0 0 0 0 0 0 0 0 0 0 0 0 0 0 0 0 0 0 -0 0 -0 -0 -0 0 0 0 0 0 0 0 0 0 0 0 0
0 0 0 0 0 0 0 0 0 0 0 0 0 0 0 0 0 0 0 0 0 0 0 0 0 0 0 0 0 0 0 0 0 0 0 0 0 0 0 0 0 0 0
0 0 0 0 0 0 0 0 0 0 0 0 0 0 0 0 0 0 0 0 0 0 0 0 0 0 0 0 0 0 0 0 0 0 0 0 0 0 0 0 0 0 0
0 0 0 0 0 0 0 0 0 0 0 0 0 0 0 0 0 0 0 0 0 0 -0 -0 0 0 0 0 0 0 0 0 -0 0 0 0 0 0 0 0 0 0 0
0 0 0 0 0 0 0 0 0 0 0 0 0 0 0 0 0 0 0 0 0 0 -0 -0 0 0 0 0 0 0 0 0 0 0 -0 0 0 0 0 0 0 0 0
0 0 0 0 0 0 0 0 0 0 0 0 0 0 0 0 0 0 0 0 0 0 0 0 0 0 0 0 0 0 0 0 0 -0 0 0 0 0 0 0 0 0 0
0 0 0 0 0 0 0 0 0 0 0 0 0 0 0 0 0 0 0 0 0 0 0 0 0 0 0 0 0 0 0 0 0 0 0 0 0 -0 0 0 -0 0 0
0 0 0 0 0 0 0 0 0 0 0 0 0 0 0 0 0 0 0 0 0 0 0 0 0 0 0 0 0 0 0 0 0 0 0 0 0 0 0 0 0 0 0
0 0 0 0 0 0 0 0 0 0 0 0 0 0 0 0 0 0 0 0 0 0 0 0 0 0 0 0 0 0 0 0 0 0 0 0 0 0 0 0 0 0 0
Wind_Speed_500mb
13 9 3 3 5 5 9 5 12 13 13 14 16 15 14 12 13 14 14 15 15 15 14 13 13 14 15 15 14 16 20 22 21 21 21 23 22 22 22 23 21 22 21
17 10 7 6 7 9 7 9 8 12 13 15 18 19 19 19 19 20 20 20 20 18 18 18 16 15 16 18 20 18 17 21 24 25 25 25 25 23 25 25 21 23 23
19 10 9 6 9 10 10 11 14 16 18 17 17 17 19 18 19 20 19 19 20 21 22 22 23 22 24 24 25 26 25 22 23 25 25 26 25 26 26 27 25 26 24
22 18 12 8 8 10 11 13 16 15 19 20 21 23 24 23 22 23 23 22 22 22 23 24 26 28 30 31 31 33 32 30 29 27 25 21 19 23 32 28 29 28 27
23 18 11 6 4 2 5 8 11 14 18 22 24 28 30 30 27 28 29 27 26 27 29 32 33 33 33 35 36 37 38 37 36 34 27 23 32 22 30 28 28 32 28
21 15 8 7 4 2 4 6 9 12 16 18 20 24 23 24 24 27 29 32 35 36 37 38 38 38 38 40 42 42 42 42 44 39 33 34 31 34 36 35 32 33 33
23 20 19 14 10 8 11 9 11 13 16 18 20 24 25 26 26 26 28 29 30 32 36 43 46 45 44 44 45 46 46 47 47 45 46 42 43 36 40 39 37 37 37
29 27 23 17 15 14 11 11 12 14 17 18 19 19 20 22 23 25 27 29 31 33 35 39 41 45 48 50 52 52 50 51 50 49 42 44 47 52 47 43 43 40 42
35 32 27 23 20 16 13 13 14 14 13 13 15 17 18 18 19 19 21 23 25 25 26 28 33 40 46 49 52 56 57 57 57 55 53 49 43 52 54 50 48 48 46
42 39 37 32 25 18 16 16 15 13 13 16 20 19 16 16 17 20 23 24 27 29 31 33 33 34 35 40 47 55 55 58 58 48 42 39 46 55 56 55 55 54 53
50 47 41 35 29 24 23 21 20 19 18 16 14 14 15 15 18 21 22 24 26 29 32 35 37 38 38 39 41 43 45 50 54 61 64 64 58 59 58 57 57 58 59
55 53 48 41 37 32 30 28 26 23 19 15 13 13 13 14 15 19 23 26 28 30 33 34 35 37 38 40 41 42 41 44 50 53 59 61 68 73 75 70 66 64 63
52 56 54 48 43 40 38 34 32 26 21 19 18 16 15 15 16 19 23 27 29 31 33 35 35 37 39 41 43 44 44 46 49 53 56 59 67 71 78 80 76 73 70
53 57 57 54 49 47 42 39 34 30 26 23 20 16 16 17 18 22 26 29 33 36 38 37 39 40 41 42 45 47 47 50 51 54 57 60 63 66 71 76 78 77 76
57 60 60 58 55 51 46 43 38 34 29 24 21 19 19 19 19 21 25 29 35 38 41 42 44 43 43 43 44 48 51 53 55 58 62 61 60 62 66 67 74 77 77
65 65 63 62 58 54 49 44 39 35 28 25 22 20 18 18 19 23 26 31 38 43 46 46 48 51 52 52 51 50 52 55 57 60 64 65 64 65 62 64 67 69 77
70 65 65 63 59 55 50 44 41 36 31 29 27 23 19 19 21 23 29 36 42 47 50 50 51 53 55 56 59 61 61 61 61 62 63 66 67 66 65 64 63 63 65
69 71 69 67 64 59 53 48 44 40 37 34 29 23 21 21 21 24 29 35 42 47 49 49 50 55 58 62 68 69 70 70 69 66 68 68 68 71 70 68 69 69 64
70 68 71 70 65 59 56 51 47 45 42 39 30 23 22 21 22 26 33 39 44 48 50 51 53 57 63 67 69 74 78 80 76 72 65 60 59 62 66 63 62 64 69
68 68 70 70 67 63 61 56 53 52 50 42 32 27 28 25 24 28 35 41 45 49 49 52 56 56 61 65 73 78 76 84 72 53 64 57 46 48 65 70 65 63 66
68 72 71 73 71 69 65 60 58 56 52 44 37 35 32 29 29 31 37 43 47 50 50 50 53 56 58 61 72 76 88 41 69 52 50 41 48 68 61 61 73 73 68
75 79 75 74 74 72 67 63 60 55 54 49 47 42 38 33 32 36 38 42 46 48 45 46 50 56 59 57 54 69 39 65 6 16 39 61 52 54 67 52 51 59 71
78 80 80 79 79 77 73 70 64 58 54 53 50 47 39 35 37 39 41 42 45 45 45 46 50 55 59 58 49 36 30 25 78 41 38 55 40 41 66 84 74 78 86
71 74 77 79 81 81 78 75 68 63 61 57 55 51 43 41 40 41 42 42 43 43 45 51 54 60 63 65 57 51 46 54 30 71 57 85 94 66 67 90 81 72 76
60 70 74 79 82 85 83 78 73 71 67 63 59 53 49 43 44 44 40 41 43 47 48 55 60 62 65 63 58 58 62 64 60 57 100 83 87 76 73 85 110 101 106
59 66 75 76 84 86 86 82 80 75 73 71 66 59 50 46 45 43 41 42 45 51 56 62 66 68 66 66 65 65 69 65 54 52 68 114 86 104 104 104 101 110 84
Wind_Direction_500mb
198 201 213 256 181 205 227 225 241 249 254 254 255 256 261 281 278 281 283 284 288 296 303 314 317 318 312 309 294 284 289 292 294 293 289 290 294 297 298 298 297 293 282
190 200 216 240 263 262 242 236 255 247 253 253 258 266 274 279 281 280 284 284 282 280 285 290 294 298 297 298 299 292 283 287 292 293 291 291 292 288 295 296 295 292 280
188 191 221 210 260 285 292 271 257 243 241 250 268 279 282 283 286 289 289 290 290 290 285 285 287 284 285 292 296 296 296 286 283 284 289 297 308 309 286 284 287 288 282
188 193 196 183 222 244 264 271 270 268 269 271 270 276 280 281 288 289 292 291 290 289 287 284 281 282 287 290 290 292 292 292 288 284 290 293 282 281 286 280 275 279 280
192 197 187 195 214 285 313 307 304 295 287 288 289 285 284 290 289 287 286 289 292 293 291 288 287 288 288 286 287 288 288 287 285 289 291 297 286 275 271 277 271 274 274
198 203 203 200 214 236 293 309 309 313 310 308 305 300 300 300 295 292 291 291 290 288 287 287 287 288 287 286 285 286 286 286 288 288 286 280 281 295 275 274 276 269 273
200 201 202 201 206 241 263 284 296 295 294 296 297 301 303 301 301 298 293 290 288 287 287 285 285 283 282 281 280 281 283 283 285 288 288 287 281 272 279 277 273 271 267
205 202 204 211 234 254 282 300 304 309 312 314 312 308 309 308 302 298 296 297 298 296 292 288 287 287 285 281 279 280 280 281 282 283 281 279 278 281 276 275 273 268 265
208 210 214 222 233 249 271 285 292 299 308 318 322 323 320 316 313 315 319 320 319 318 316 312 303 294 289 286 283 279 277 279 281 282 282 277 278 277 278 277 273 270 264
213 214 219 222 229 242 256 262 267 272 287 306 313 315 313 313 323 327 331 333 333 336 336 333 330 322 316 307 296 287 284 279 278 282 273 279 284 278 275 273 271 270 266
217 221 224 227 230 235 242 242 240 244 261 274 283 292 306 322 329 336 335 334 337 337 336 334 333 331 328 322 315 309 302 291 281 276 271 270 265 271 275 273 269 267 267
221 222 224 224 226 229 236 237 236 243 253 262 267 279 289 301 318 327 335 335 332 330 328 329 328 327 328 327 324 321 315 305 299 291 282 275 270 269 273 276 276 269 263
225 226 226 226 226 229 232 235 237 242 248 253 257 265 276 291 310 323 325 327 329 329 327 325 323 323 324 323 321 320 317 311 307 300 292 285 278 273 271 272 272 270 270
220 226 225 226 226 228 231 232 236 240 241 246 253 265 279 289 306 317 323 327 326 326 323 322 321 321 319 317 316 311 309 308 306 301 296 293 289 285 278 273 271 269 266
222 225 225 224 225 227 228 231 233 236 237 242 250 260 269 280 298 312 320 323 323 322 321 321 321 319 318 316 313 311 310 307 303 301 298 296 293 290 286 282 274 270 267
224 227 226 224 224 226 227 229 231 234 235 240 252 261 268 280 298 312 318 321 323 323 322 323 326 326 325 324 320 315 310 308 304 301 299 298 297 293 291 288 283 278 270
228 223 224 222 222 225 226 229 231 235 236 243 252 258 264 281 301 314 324 325 322 323 322 323 325 325 324 324 321 319 317 313 308 304 298 294 292 290 290 289 287 284 278
224 223 222 223 224 224 226 230 233 236 238 243 244 249 263 284 304 314 317 316 317 319 321 323 325 327 327 327 325 323 320 316 314 310 305 301 294 290 287 285 285 283 278
221 218 220 221 223 224 227 229 233 237 238 241 241 248 263 278 293 306 315 318 320 321 320 321 325 327 327 326 323 322 319 315 314 310 302 296 294 290 289 290 287 285 284
218 218 221 223 222 224 227 229 232 234 235 235 237 246 260 274 292 305 312 312 315 318 321 326 326 325 325 324 320 319 317 319 313 308 307 294 292 301 299 297 295 289 285
214 217 218 220 221 223 225 226 231 234 234 233 234 241 254 267 282 302 306 312 313 318 322 326 323 323 324 322 320 319 321 335 323 309 304 299 296 295 291 297 295 297 298
219 222 220 221 223 226 227 230 232 233 234 232 234 240 249 264 284 295 300 302 310 314 322 322 320 321 320 323 318 321 325 324 19 267 284 294 287 295 289 290 289 285 287
220 224 223 223 225 228 229 231 232 233 234 231 233 240 250 265 276 286 294 302 307 311 318 318 318 317 313 313 312 304 318 302 311 327 286 297 295 278 288 298 292 290 291
223 226 227 226 228 231 232 234 235 238 235 234 235 240 250 262 273 283 291 301 304 308 314 314 311 310 307 305 303 299 290 289 304 309 296 290 295 298 289 295 298 284 284
221 226 228 229 231 233 234 233 234 234 234 235 237 241 251 262 273 281 291 296 301 306 310 306 304 304 302 296 295 293 289 285 277 272 293 297 293 294 291 286 294 288 287
221 225 226 227 233 234 234 234 234 234 235 236 238 242 249 260 271 281 288 293 299 303 304 303 301 301 299 295 293 288 285 278 272 267 275 287 287 290 292 291 286 293 287
Wind_Speed_850mb
13 9 3 3 5 5 9 5 12 13 13 14 16 15 14 12 13 14 14 15 15 15 14 13 13 14 15 15 14 16 20 22 21 21 21 23 22 22 22 23 21 22 21
17 10 7 6 7 9 7 9 8 12 13 15 18 19 19 19 19 20 20 20 20 18 18 18 16 15 16 18 20 18 17 21 24 25 25 25 25 23 25 25 21 23 23
19 10 9 6 9 10 10 11 14 16 18 17 17 17 19 18 19 20 19 19 20 21 22 22 23 22 24 24 25 26 25 22 23 25 25 26 25 26 26 27 25 26 24
22 18 12 8 8 10 11 13 16 15 19 20 21 23 24 23 22 23 23 22 22 22 23 24 26 28 30 31 31 33 32 30 29 27 25 21 19 23 32 28 29 28 27
23 18 11 6 4 2 5 8 11 14 18 22 24 28 30 30 27 28 29 27 26 27 29 32 33 33 33 35 36 37 38 37 36 34 27 23 32 22 30 28 28 32 28
21 15 8 7 4 2 4 6 9 12 16 18 20 24 23 24 24 27 29 32 35 36 37 38 38 38 38 40 42 42 42 42 44 39 33 34 31 34 36 35 32 33 33
23 20 19 14 10 8 11 9 11 13 16 18 20 24 25 26 26 26 28 29 30 32 36 43 46 45 44 44 45 46 46 47 47 45 46 42 43 36 40 39 37 37 37
29 27 23 17 15 14 11 11 12 14 17 18 19 19 20 22 23 25 27 29 31 33 35 39 41 45 48 50 52 52 50 51 50 49 42 44 47 52 47 43 43 40 42
35 32 27 23 20 16 13 13 14 14 13 13 15 17 18 18 19 19 21 23 25 25 26 28 33 40 46 49 52 56 57 57 57 55 53 49 43 52 54 50 48 48 46
42 39 37 32 25 18 16 16 15 13 13 16 20 19 16 16 17 20 23 24 27 29 31 33 33 34 35 40 47 55 55 58 58 48 42 39 46 55 56 55 55 54 53
50 47 41 35 29 24 23 21 20 19 18 16 14 14 15 15 18 21 22 24 26 29 32 35 37 38 38 39 41 43 45 50 54 61 64 64 58 59 58 57 57 58 59
55 53 48 41 37 32 30 28 26 23 19 15 13 13 13 14 15 19 23 26 28 30 33 34 35 37 38 40 41 42 41 44 50 53 59 61 68 73 75 70 66 64 63
52 56 54 48 43 40 38 34 32 26 21 19 18 16 15 15 16 19 23 27 29 31 33 35 35 37 39 41 43 44 44 46 49 53 56 59 67 71 78 80 76 73 70
53 57 57 54 49 47 42 39 34 30 26 23 20 16 16 17 18 22 26 29 33 36 38 37 39 40 41 42 45 47 47 50 51 54 57 60 63 66 71 76 78 77 76
57 60 60 58 55 51 46 43 38 34 29 24 21 19 19 19 19 21 25 29 35 38 41 42 44 43 43 43 44 48 51 53 55 58 62 61 60 62 66 67 74 77 77
65 65 63 62 58 54 49 44 39 35 28 25 22 20 18 18 19 23 26 31 38 43 46 46 48 51 52 52 51 50 52 55 57 60 64 65 64 65 62 64 67 69 77
70 65 65 63 59 55 50 44 41 36 31 29 27 23 19 19 21 23 29 36 42 47 50 50 51 53 55 56 59 61 61 61 61 62 63 66 67 66 65 64 63 63 65
69 71 69 67 64 59 53 48 44 40 37 34 29 23 21 21 21 24 29 35 42 47 49 49 50 55 58 62 68 69 70 70 69 66 68 68 68 71 70 68 69 69 64
70 68 71 70 65 59 56 51 47 45 42 39 30 23 22 21 22 26 33 39 44 48 50 51 53 57 63 67 69 74 78 80 76 72 65 60 59 62 66 63 62 64 69
68 68 70 70 67 63 61 56 53 52 50 42 32 27 28 25 24 28 35 41 45 49 49 52 56 56 61 65 73 78 76 84 72 53 64 57 46 48 65 70 65 63 66
68 72 71 73 71 69 65 60 58 56 52 44 37 35 32 29 29 31 37 43 47 50 50 50 53 56 58 61 72 76 88 41 69 52 50 41 48 68 61 61 73 73 68
75 79 75 74 74 72 67 63 60 55 54 49 47 42 38 33 32 36 38 42 46 48 45 46 50 56 59 57 54 69 39 65 6 16 39 61 52 54 67 52 51 59 71
78 80 80 79 79 77 73 70 64 58 54 53 50 47 39 35 37 39 41 42 45 45 45 46 50 55 59 58 49 36 30 25 78 41 38 55 40 41 66 84 74 78 86
71 74 77 79 81 81 78 75 68 63 61 57 55 51 43 41 40 41 42 42 43 43 45 51 54 60 63 65 57 51 46 54 30 71 57 85 94 66 67 90 81 72 76
60 70 74 79 82 85 83 78 73 71 67 63 59 53 49 43 44 44 40 41 43 47 48 55 60 62 65 63 58 58 62 64 60 57 100 83 87 76 73 85 110 101 106
59 66 75 76 84 86 86 82 80 75 73 71 66 59 50 46 45 43 41 42 45 51 56 62 66 68 66 66 65 65 69 65 54 52 68 114 86 104 104 104 101 110 84
Wind_Direction_850mb
198 201 213 256 181 205 227 225 241 249 254 254 255 256 261 281 278 281 283 284 288 296 303 314 317 318 312 309 294 284 289 292 294 293 289 290 294 297 298 298 297 293 282
190 200 216 240 263 262 242 236 255 247 253 253 258 266 274 279 281 280 284 284 282 280 285 290 294 298 297 298 299 292 283 287 292 293 291 291 292 288 295 296 295 292 280
188 191 221 210 260 285 292 271 257 243 241 250 268 279 282 283 286 289 289 290 290 290 285 285 287 284 285 292 296 296 296 286 283 284 289 297 308 309 286 284 287 288 282
188 193 196 183 222 244 264 271 270 268 269 271 270 276 280 281 288 289 292 291 290 289 287 284 281 282 287 290 290 292 292 292 288 284 290 293 282 281 286 280 275 279 280
192 197 187 195 214 285 313 307 304 295 287 288 289 285 284 290 289 287 286 289 292 293 291 288 287 288 288 286 287 288 288 287 285 289 291 297 286 275 271 277 271 274 274
198 203 203 200 214 236 293 309 309 313 310 308 305 300 300 300 295 292 291 291 290 288 287 287 287 288 287 286 285 286 286 286 288 288 286 280 281 295 275 274 276 269 273
200 201 202 201 206 241 263 284 296 295 294 296 297 301 303 301 301 298 293 290 288 287 287 285 285 283 282 281 280 281 283 283 285 288 288 287 281 272 279 277 273 271 267
205 202 204 211 234 254 282 300 304 309 312 314 312 308 309 308 302 298 296 297 298 296 292 288 287 287 285 281 279 280 280 281 282 283 281 279 278 281 276 275 273 268 265
208 210 214 222 233 249 271 285 292 299 308 318 322 323 320 316 313 315 319 320 319 318 316 312 303 294 289 286 283 279 277 279 281 282 282 277 278 277 278 277 273 270 264
213 214 219 222 229 242 256 262 267 272 287 306 313 315 313 313 323 327 331 333 333 336 336 333 330 322 316 307 296 287 284 279 278 282 273 279 284 278 275 273 271 270 266
217 221 224 227 230 235 242 242 240 244 261 274 283 292 306 322 329 336 335 334 337 337 336 334 333 331 328 322 315 309 302 291 281 276 271 270 265 271 275 273 269 267 267
221 222 224 224 226 229 236 237 236 243 253 262 267 279 289 301 318 327 335 335 332 330 328 329 328 327 328 327 324 321 315 305 299 291 282 275 270 269 273 276 276 269 263
225 226 226 226 226 229 232 235 237 242 248 253 257 265 276 291 310 323 325 327 329 329 327 325 323 323 324 323 321 320 317 311 307 300 292 285 278 273 271 272 272 270 270
220 226 225 226 226 228 231 232 236 240 241 246 253 265 279 289 306 317 323 327 326 326 323 322 321 321 319 317 316 311 309 308 306 301 296 293 289 285 278 273 271 269 266
222 225 225 224 225 227 228 231 233 236 237 242 250 260 269 280 298 312 320 323 323 322 321 321 321 319 318 316 313 311 310 307 303 301 298 296 293 290 286 282 274 270 267
224 227 226 224 224 226 227 229 231 234 235 240 252 261 268 280 298 312 318 321 323 323 322 323 326 326 325 324 320 315 310 308 304 301 299 298 297 293 291 288 283 278 270
228 223 224 222 222 225 226 229 231 235 236 243 252 258 264 281 301 314 324 325 322 323 322 323 325 325 324 324 321 319 317 313 308 304 298 294 292 290 290 289 287 284 278
224 223 222 223 224 224 226 230 233 236 238 243 244 249 263 284 304 314 317 316 317 319 321 323 325 327 327 327 325 323 320 316 314 310 305 301 294 290 287 285 285 283 278
221 218 220 221 223 224 227 229 233 237 238 241 241 248 263 278 293 306 315 318 320 321 320 321 325 327 327 326 323 322 319 315 314 310 302 296 294 290 289 290 287 285 284
218 218 221 223 222 224 227 229 232 234 235 235 237 246 260 274 292 305 312 312 315 318 321 326 326 325 325 324 320 319 317 319 313 308 307 294 292 301 299 297 295 289 285
214 217 218 220 221 223 225 226 231 234 234 233 234 241 254 267 282 302 306 312 313 318 322 326 323 323 324 322 320 319 321 335 323 309 304 299 296 295 291 297 295 297 298
219 222 220 221 223 226 227 230 232 233 234 232 234 240 249 264 284 295 300 302 310 314 322 322 320 321 320 323 318 321 325 324 19 267 284 294 287 295 289 290 289 285 287
220 224 223 223 225 228 229 231 232 233 234 231 233 240 250 265 276 286 294 302 307 311 318 318 318 317 313 313 312 304 318 302 311 327 286 297 295 278 288 298 292 290 291
223 226 227 226 228 231 232 234 235 238 235 234 235 240 250 262 273 283 291 301 304 308 314 314 311 310 307 305 303 299 290 289 304 309 296 290 295 298 289 295 298 284 284
221 226 228 229 231 233 234 233 234 234 234 235 237 241 251 262 273 281 291 296 301 306 310 306 304 304 302 296 295 293 289 285 277 272 293 297 293 294 291 286 294 288 287
221 225 226 227 233 234 234 234 234 234 235 236 238 242 249 260 271 281 288 293 299 303 304 303 301 301 299 295 293 288 285 278 272 267 275 287 287 290 292 291 286 293 287